Location: Wildcat Hills Observatory
(41.6350°N, 103.6812°W)
Time: 03:15:08
(UTC-07:00)

Daily predictions for brighter satellites

Satellite Brightness Start Highest point End
(mag) Time Altitude Azimuth Time Altitude Azimuth Time Altitude Azimuth
SL-16 R/B 4.5 03:17:22 19° E 03:17:22 19° E 03:21:13 10° NE
USA 215 4.1 03:34:17 10° ENE 03:40:24 41° SE 03:40:47 41° SE
Cosmos 2237 Rocket 4.3 03:52:17 18° NNE 03:52:17 18° NNE 03:53:40 10° NNE
CENTAUR R/B 2.9 03:58:45 59° ENE 03:58:45 59° ENE 04:04:24 10° NE
ADEOS II 4.4 04:11:55 10° NNE 04:12:25 13° NNE 04:12:25 13° NNE
Cosmos 2219 Rocket 4.3 04:31:12 14° N 04:31:12 14° N 04:32:00 10° N
Cosmos 921 Rocket 4.4 04:31:59 31° NNE 04:33:15 37° ENE 04:37:26 10° SE
COSMO-SKYMED 1 4.1 04:30:02 10° SE 04:33:56 34° ENE 04:36:15 20° NNE
Cosmos 2333 Rocket 4.0 04:38:55 18° N 04:38:55 18° N 04:40:32 10° N
Cosmos 2297 3.5 04:36:45 82° WSW 04:36:45 82° WSW 04:42:24 10° SSE
Meteor 1-14 Rocket 4.1 04:31:54 10° S 04:37:36 88° W 04:43:13 10° N
DELTA 2 R/B (1) 4.2 04:42:22 42° SSW 04:42:22 42° SSW 04:47:26 10° SE
Okean 1 4.4 04:45:18 29° NNE 04:46:55 44° ENE 04:50:46 10° SSE
Cosmos 2278 Rocket 4.0 04:55:57 17° SSW 04:55:57 17° SSW 04:57:23 10° SSW
Cosmos 923 Rocket 4.0 04:53:50 58° NW 04:53:50 58° NW 04:58:37 10° NNE
Celestis-02/Orion 38 4.4 04:48:34 10° SSE 04:53:42 75° WSW 04:54:48 56° NW
USA 32 4.1 04:48:36 10° N 04:53:51 76° E 04:59:04 10° S
Cosmos 2074 Rocket 4.0 04:51:00 10° S 04:57:17 83° E 05:03:34 10° N
Meteor 1-25 Rocket 4.2 04:54:49 10° S 05:00:40 85° W 05:06:32 10° N
SL-16 R/B 2.1 04:59:24 45° WSW 05:00:53 60° WNW 05:06:31 10° NNE
Ariane Rocket 4.1 04:56:16 10° NNE 05:01:08 45° E 05:05:57 10° S
ATLAS CENTAUR Rocket 4.2 04:55:54 20° WSW 05:02:00 31° SSW 05:06:29 10° SE
Cosmos 1812 2.7 05:03:41 68° SSW 05:03:41 68° SSW 05:07:07 10° S
Cosmos 292 Rocket 3.6 05:02:32 27° SSW 05:05:09 70° WNW 05:09:59 10° NNE
GPS 2-05 Rocket1 4.2 05:05:47 31° S 05:05:52 31° S 05:09:05 10° ESE
Cosmos 1346 Rocket 3.1 05:04:27 27° N 05:06:25 62° ENE 05:10:18 10° SSE
Iridium 2 3.5 05:06:09 10° S 05:09:56 76° W 05:10:22 66° NNW
Cosmos 2184 Rocket 3.8 05:04:52 10° S 05:11:01 82° W 05:17:15 10° N
CZ-4 R/B 4.2 05:12:42 10° NE 05:15:38 20° E 05:18:31 10° SE
SKYMED 2 3.4 05:17:36 10° S 05:21:55 71° WSW 05:24:53 20° NNW
Cosmos 1680 Rocket 3.7 05:19:29 26° WSW 05:21:59 44° WNW 05:26:59 10° N
Cosmos 2151 Rocket 3.7 05:18:28 10° SSW 05:22:51 50° W 05:27:15 10° N
USA 215 3.3 05:17:08 10° NE 05:23:33 61° NW 05:28:10 20° WSW
SL-08 ROCKET BODY 4.3 05:19:46 10° SSW 05:25:39 58° W 05:31:30 10° N
Cosmos 2154 Rocket 4.3 05:20:11 10° S 05:26:20 70° E 05:32:31 10° NNE
Meteor 1-28 Rocket 3.4 05:26:06 10° SSE 05:29:52 74° ENE 05:33:40 10° N
CSL-04 DEB 4.3 05:26:51 10° NNE 05:30:54 89° NW 05:35:02 10° SSW
Cosmos 1536 4.1 05:27:59 10° SSE 05:31:44 41° E 05:35:31 10° NNE
Cosmos 1633 3.0 05:28:10 10° S 05:31:47 62° E 05:35:23 10° NNE
Cosmos 2237 Rocket 3.8 05:34:09 16° NNW 05:34:09 16° NNW 05:36:24 10° N
Abrixas rocket 4.4 05:32:13 10° SSW 05:35:04 26° SE 05:37:57 10° E
Tiangong 2 1.0 05:38:00 43° W 05:38:52 73° N 05:42:01 10° E
Radarsat Rocket 4.4 05:32:30 10° N 05:39:20 66° WNW 05:47:04 10° SSW
NOAA 6 4.3 05:35:09 10° N 05:39:58 42° WNW 05:44:45 10° SW
Meteor 2-4 Rocket 4.3 05:36:20 10° N 05:41:45 58° ENE 05:47:16 10° SSE
Cosmos 1536 Rocket 4.2 05:43:30 19° NW 05:46:01 34° W 05:50:00 10° SSW
Helios 1B rocket 4.0 05:42:31 10° SE 05:46:18 36° ENE 05:50:07 10° N
CENTAUR R/B 3.5 05:46:00 20° WNW 05:49:00 28° NW 05:54:59 10° NNE
CZ-2C R/B 3.9 05:45:07 10° NNE 05:50:03 43° E 05:54:52 10° S
Cosmos 1238 Rocket 4.3 05:47:59 20° NW 05:50:07 27° W 05:54:42 10° SSW
CSL-04 Debris 4.2 05:46:14 10° NNE 05:51:43 90° ESE 05:57:12 10° SSW
CSL-04 Rocket 3.6 05:46:20 10° N 05:51:54 78° WNW 05:57:24 10° SSW
YAOGAN 1 4.2 05:49:25 10° NNE 05:53:29 38° E 05:57:30 10° SSE
Lacrosse 5 rocket 3.6 05:54:49 10° NNW 05:55:57 11° N 05:57:11 10° N
Cosmos 1603 3.8 05:52:47 10° SW 05:58:22 55° WNW 06:03:56 10° NNE
Cosmos 2369 Rocket 2.4 05:55:34 10° NNW 06:01:19 75° ENE 06:07:00 10° SSE
Cosmos 44 4.3 05:56:56 10° SSW 06:02:10 55° ESE 06:07:17 10° NE
SMAP 4.0 05:58:02 10° NNE 06:02:36 53° E 06:07:08 10° S
Cosmos 1025 Rocket 3.1 05:59:11 10° N 06:03:36 83° E 06:07:58 10° S
PSLV R/B 3.6 06:01:56 17° W 06:04:20 58° SSW 06:07:39 10° ESE
Okean 1 Rocket 3.3 06:01:04 10° SSW 06:05:19 47° WNW 06:09:35 10° N
GRACE-2 4.2 06:04:36 10° N 06:07:23 69° E 06:10:08 10° S
GRACE-1 4.1 06:05:01 10° N 06:07:47 72° E 06:10:33 10° S
COSMO-SKYMED 1 3.8 06:06:52 10° SW 06:10:10 21° W 06:13:28 10° NW
Cosmos 921 Rocket 4.4 06:08:51 14° WNW 06:11:15 20° W 06:14:32 10° SW
Okean 1-7 Rocket 3.8 06:09:02 10° NNW 06:13:16 48° W 06:17:27 10° SSW
Lacrosse 5 1.9 06:08:36 10° SW 06:13:43 85° NW 06:18:51 10° NE
USA 129 2.9 06:12:47 10° SSW 06:14:26 22° W 06:15:23 16° WNW
PAYLOAD A 4.1 06:09:32 10° N 06:14:53 78° WNW 06:20:19 10° SSW
SPOT 3 Rocket 3.9 06:13:31 10° NNE 06:18:41 73° ESE 06:23:48 10° S
Nadezhda 3 Rocket 4.4 06:16:22 10° NNW 06:22:20 45° W 06:28:19 10° SSW
Cosmos 2056 Rocket 4.2 06:18:26 10° NW 06:23:00 32° W 06:27:29 10° SSW
Cosmos 1943 3.2 06:19:55 10° SSW 06:25:30 72° WNW 06:31:10 10° NNE
Cosmos 1420 Rocket 4.4 06:22:36 10° NNW 06:27:51 66° ENE 06:33:01 10° SSE
MOS 1 4.4 06:24:01 10° NNE 06:29:42 89° ESE 06:35:21 10° SSW
Cosmos 44 Rocket 3.6 06:26:40 10° SW 06:31:43 51° NW 06:36:43 10° NNE
Okean 2 3.4 06:28:38 10° NNW 06:32:49 75° W 06:36:58 10° S
Cosmos 1892 Rocket 3.6 06:28:42 10° N 06:33:10 83° W 06:37:38 10° S
Meteor 1-29 2.9 06:31:22 10° S 06:34:43 78° WSW 06:38:07 10° NNW
IDEFIX/ARIANE 42P 2.5 06:31:01 10° N 06:36:13 76° WNW 06:41:24 10° SSW
USA 229 DEB 4.0 06:30:06 10° SSW 06:36:58 77° ESE 06:43:56 10° NE
USA 229 4.0 06:30:14 10° SSW 06:37:04 76° ESE 06:44:02 10° NE
